When you browse on this site, cookies collect data to enhance your experience and personalize the content and advertising you see.
Visit our Privacy Policy to learn more. By continuing to use the site, you agree to this use of cookies and data.
  • In Belgien
  • Länderverzeichnis
  • Für 7 Tage
  • Wassertemperatur
  • Satellitenkarten
  • Wetterkarte
  • Widgets
  • user-avatar
    Anmelden

    Stündliche Wetter Grachev Verh

    Heute, 26 Juni, Mittwoch

    Zeit Temperatur Niederschläge Wind Luftdruck Luftfeuchtigkeit
    00:00 +15°C° 0 mm 2 m/S 752 mmHg 75%
    01:00 +15°C° 0 mm 1 m/S 752 mmHg 76%
    02:00 +14°C° 0 mm 1 m/S 752 mmHg 78%
    03:00 +14°C° 0 mm 1 m/S 753 mmHg 79%
    04:00 +14°C° 0 mm 1 m/S 753 mmHg 78%
    05:00 +15°C° 0 mm 1 m/S 752 mmHg 78%
    06:00 +16°C° 0 mm 1 m/S 752 mmHg 78%
    07:00 +18°C° 0 mm 1 m/S 752 mmHg 72%
    08:00 +20°C° 0 mm 1 m/S 752 mmHg 66%
    09:00 +21°C° 0 mm 1 m/S 752 mmHg 60%
    10:00 +22°C° 0 mm 1 m/S 752 mmHg 58%
    11:00 +23°C° 0 mm 2 m/S 752 mmHg 56%
    12:00 +24°C° 0 mm 2 m/S 751 mmHg 54%
    13:00 +24°C° 0 mm 2 m/S 751 mmHg 55%
    14:00 +24°C° 0 mm 2 m/S 751 mmHg 55%
    15:00 +24°C° 0 mm 2 m/S 750 mmHg 56%
    16:00 +24°C° 0 mm 3 m/S 750 mmHg 60%
    17:00 +24°C° 0 mm 3 m/S 749 mmHg 63%
    18:00 +24°C° 0 mm 3 m/S 748 mmHg 66%
    19:00 +22°C° 0 mm 3 m/S 748 mmHg 71%
    20:00 +20°C° 0 mm 3 m/S 747 mmHg 77%
    21:00 +19°C° 0 mm 3 m/S 747 mmHg 82%
    22:00 +18°C° 0 mm 3 m/S 747 mmHg 82%
    23:00 +18°C° 0 mm 4 m/S 746 mmHg 82%

    Morgen, 27 Juni, Donnerstag

    Zeit Temperatur Niederschläge Wind Luftdruck Luftfeuchtigkeit
    00:00 +18°C° 0 mm 4 m/S 746 mmHg 82%
    01:00 +17°C° 0 mm 4 m/S 745 mmHg 84%
    02:00 +17°C° 0 mm 4 m/S 745 mmHg 86%
    03:00 +15°C° 0 mm 4 m/S 744 mmHg 88%
    04:00 +17°C° 0 mm 4 m/S 743 mmHg 89%
    05:00 +17°C° 0 mm 4 m/S 743 mmHg 89%
    06:00 +18°C° 0 mm 4 m/S 742 mmHg 90%
    07:00 +18°C° 1 mm 4 m/S 742 mmHg 92%
    08:00 +18°C° 1 mm 4 m/S 741 mmHg 93%
    09:00 +19°C° 1 mm 4 m/S 741 mmHg 95%
    10:00 +19°C° 0.7 mm 4 m/S 740 mmHg 93%
    11:00 +20°C° 0.7 mm 3 m/S 739 mmHg 92%
    12:00 +21°C° 0.7 mm 3 m/S 738 mmHg 90%
    13:00 +22°C° 0.1 mm 5 m/S 738 mmHg 83%
    14:00 +24°C° 0.1 mm 6 m/S 737 mmHg 76%
    15:00 +27°C° 0.1 mm 8 m/S 736 mmHg 69%
    16:00 +26°C° 1 mm 8 m/S 735 mmHg 74%
    17:00 +24°C° 1 mm 7 m/S 734 mmHg 79%
    18:00 +23°C° 1 mm 7 m/S 733 mmHg 85%
    19:00 +22°C° 1.4 mm 6 m/S 733 mmHg 87%
    20:00 +21°C° 1.4 mm 6 m/S 732 mmHg 90%
    21:00 +20°C° 1.4 mm 6 m/S 731 mmHg 92%
    22:00 +20°C° 1.9 mm 6 m/S 731 mmHg 94%
    23:00 +20°C° 1.9 mm 5 m/S 730 mmHg 95%

    übermorgen, 28 Juni, Freitag

    Zeit Temperatur Niederschläge Wind Luftdruck Luftfeuchtigkeit
    00:00 +19°C° 1.9 mm 5 m/S 729 mmHg 96%
    01:00 +19°C° 0.3 mm 5 m/S 729 mmHg 96%
    02:00 +17°C° 0.3 mm 5 m/S 729 mmHg 96%
    03:00 +17°C° 0.3 mm 5 m/S 729 mmHg 96%
    04:00 +16°C° 0 mm 5 m/S 729 mmHg 94%
    05:00 +16°C° 0 mm 6 m/S 729 mmHg 92%
    06:00 +15°C° 0 mm 6 m/S 729 mmHg 90%
    07:00 +15°C° 0.1 mm 6 m/S 729 mmHg 88%
    08:00 +15°C° 0.1 mm 6 m/S 729 mmHg 87%
    09:00 +15°C° 0.1 mm 7 m/S 729 mmHg 85%
    10:00 +15°C° 0.1 mm 7 m/S 729 mmHg 84%
    11:00 +15°C° 0.1 mm 7 m/S 729 mmHg 82%
    12:00 +15°C° 0.1 mm 7 m/S 729 mmHg 81%
    13:00 +16°C° 0.2 mm 8 m/S 729 mmHg 80%
    14:00 +16°C° 0.2 mm 8 m/S 729 mmHg 80%
    15:00 +16°C° 0.2 mm 8 m/S 729 mmHg 79%
    16:00 +15°C° 0.1 mm 8 m/S 729 mmHg 80%
    17:00 +13°C° 0.1 mm 8 m/S 729 mmHg 82%
    18:00 +12°C° 0.1 mm 7 m/S 729 mmHg 84%
    19:00 +12°C° 0.1 mm 7 m/S 729 mmHg 83%
    20:00 +11°C° 0.1 mm 8 m/S 729 mmHg 82%
    21:00 +10°C° 0.1 mm 8 m/S 729 mmHg 81%
    22:00 +10°C° 0.2 mm 8 m/S 729 mmHg 84%
    23:00 +10°C° 0.2 mm 8 m/S 729 mmHg 86%

    29 Juni, Samstag

    Zeit Temperatur Niederschläge Wind Luftdruck Luftfeuchtigkeit
    00:00 +10°C° 0.2 mm 8 m/S 729 mmHg 89%
    01:00 +10°C° 0.1 mm 8 m/S 730 mmHg 88%
    02:00 +10°C° 0.1 mm 7 m/S 730 mmHg 88%
    03:00 +10°C° 0.1 mm 7 m/S 730 mmHg 88%
    04:00 +10°C° 0 mm 7 m/S 730 mmHg 88%
    05:00 +10°C° 0 mm 7 m/S 731 mmHg 88%
    06:00 +10°C° 0 mm 7 m/S 731 mmHg 88%
    07:00 +10°C° 0 mm 7 m/S 731 mmHg 87%
    08:00 +10°C° 0 mm 7 m/S 732 mmHg 86%
    09:00 +10°C° 0 mm 6 m/S 732 mmHg 85%
    10:00 +10°C° 0 mm 6 m/S 733 mmHg 84%
    11:00 +10°C° 0 mm 6 m/S 734 mmHg 84%
    12:00 +10°C° 0 mm 6 m/S 734 mmHg 83%
    13:00 +10°C° 0 mm 6 m/S 735 mmHg 82%
    14:00 +10°C° 0 mm 6 m/S 735 mmHg 81%
    15:00 +10°C° 0 mm 6 m/S 735 mmHg 81%
    16:00 +9°C° 0 mm 6 m/S 736 mmHg 81%
    17:00 +9°C° 0 mm 5 m/S 736 mmHg 81%
    18:00 +8°C° 0 mm 5 m/S 736 mmHg 82%
    19:00 +8°C° 0 mm 5 m/S 737 mmHg 83%
    20:00 +8°C° 0 mm 5 m/S 737 mmHg 85%
    21:00 +8°C° 0 mm 4 m/S 737 mmHg 86%
    22:00 +8°C° 0.1 mm 4 m/S 737 mmHg 88%
    23:00 +8°C° 0.1 mm 4 m/S 737 mmHg 89%

    30 Juni, Sonntag

    Zeit Temperatur Niederschläge Wind Luftdruck Luftfeuchtigkeit
    00:00 +7°C° 0.1 mm 4 m/S 737 mmHg 91%
    01:00 +8°C° 0.1 mm 4 m/S 738 mmHg 91%
    02:00 +8°C° 0.1 mm 4 m/S 738 mmHg 92%
    03:00 +8°C° 0.1 mm 4 m/S 738 mmHg 92%
    04:00 +8°C° 0.1 mm 4 m/S 738 mmHg 92%
    05:00 +8°C° 0.1 mm 4 m/S 738 mmHg 92%
    06:00 +8°C° 0.1 mm 4 m/S 738 mmHg 92%
    07:00 +8°C° 0.2 mm 4 m/S 739 mmHg 92%
    08:00 +8°C° 0.2 mm 4 m/S 739 mmHg 92%
    09:00 +10°C° 0.2 mm 4 m/S 739 mmHg 92%
    10:00 +11°C° 0.1 mm 3 m/S 740 mmHg 87%
    11:00 +12°C° 0.1 mm 3 m/S 740 mmHg 82%
    12:00 +13°C° 0.1 mm 3 m/S 740 mmHg 76%
    13:00 +14°C° 0.1 mm 3 m/S 741 mmHg 71%
    14:00 +17°C° 0.1 mm 4 m/S 741 mmHg 66%
    15:00 +18°C° 0.1 mm 4 m/S 741 mmHg 61%
    16:00 +18°C° 0.1 mm 4 m/S 741 mmHg 63%
    17:00 +18°C° 0.1 mm 3 m/S 742 mmHg 65%
    18:00 +18°C° 0.1 mm 3 m/S 742 mmHg 66%
    19:00 +16°C° 0 mm 2 m/S 742 mmHg 72%
    20:00 +15°C° 0 mm 2 m/S 742 mmHg 78%
    21:00 +13°C° 0 mm 1 m/S 742 mmHg 84%
    22:00 +13°C° 0 mm 1 m/S 743 mmHg 85%
    23:00 +12°C° 0 mm 1 m/S 743 mmHg 86%

    1 Juli, Montag

    Zeit Temperatur Niederschläge Wind Luftdruck Luftfeuchtigkeit
    00:00 +12°C° 0 mm 2 m/S 743 mmHg 87%
    01:00 +12°C° 0 mm 2 m/S 743 mmHg 88%
    02:00 +10°C° 0 mm 2 m/S 743 mmHg 89%
    03:00 +10°C° 0 mm 2 m/S 743 mmHg 91%
    04:00 +12°C° 0 mm 2 m/S 743 mmHg 90%
    05:00 +12°C° 0 mm 2 m/S 743 mmHg 89%
    06:00 +13°C° 0 mm 1 m/S 743 mmHg 88%
    07:00 +15°C° 0 mm 1 m/S 743 mmHg 82%
    08:00 +16°C° 0 mm 1 m/S 743 mmHg 76%
    09:00 +19°C° 0 mm 1 m/S 743 mmHg 70%
    10:00 +20°C° 0 mm 1 m/S 743 mmHg 64%
    11:00 +21°C° 0 mm 1 m/S 743 mmHg 59%
    12:00 +22°C° 0 mm 1 m/S 743 mmHg 53%
    13:00 +23°C° 0 mm 1 m/S 743 mmHg 53%
    14:00 +23°C° 0 mm 1 m/S 743 mmHg 52%
    15:00 +23°C° 0 mm 2 m/S 742 mmHg 51%
    16:00 +23°C° 0 mm 1 m/S 742 mmHg 54%
    17:00 +23°C° 0 mm 1 m/S 742 mmHg 57%
    18:00 +23°C° 0 mm 1 m/S 742 mmHg 59%
    19:00 +22°C° 0 mm 1 m/S 742 mmHg 64%
    20:00 +20°C° 0 mm 1 m/S 741 mmHg 69%
    21:00 +18°C° 0 mm 1 m/S 741 mmHg 74%
    22:00 +18°C° 0 mm 1 m/S 741 mmHg 77%
    23:00 +16°C° 0 mm 1 m/S 741 mmHg 80%
    Mehr zeigen